Showing default

CP5, 38763

Orbit data source: Space-Track

CP5, 38763 is a payload satellite owned by Cal Poly (US) in LEO that was launched on Thu, 13 Sep 2012 UTC via an ATLAS V 401 launch vehicle from the Air Force Western Test Range (AFWTR). Payload-class satellites include a variety of spacecraft equipped with specific instruments for various scientific and technological missions. These include communications satellites like Starlink; space stations such as the ISS; scientific satellites like the Hubble; Earth observation satellites from companies like Planet Labs, Umbra, and HawkEye 360; GPS; miniature CubeSats for education and research; and military/defense satellites.

Loading next visibility...
Identifier
38763, 2012-048F
Orbit
LEO
Country
Flag of USUS
Related business
Manufacturer
Cal Poly
Mission
Non-operational Amateur Technology
Bus & Motor
CUBESAT 1U, Unknown motor
Mass
1 kg wet, 1 kg dry
Launch date (UTC)
2012-09-13 (14 years ago)
Launch vehicle
ATLAS V 401
Launch site
Air Force Western Test Range (AFWTR)
Object type
Payload
Rocket body
Debris
Shape & HBR
Box + 1 Ant, 0.1 m
Radar Cross Section
0.019 m², Medium (>0.1 m² and < 1m²)

Expand to show TLE details & history
Last TLE update: 12 hours ago

TLE from 12 hours ago
0 CP5
1 38763U 12048F   26146.26591766  .00016241  00000-0  55462-3 0  9992
2 38763  64.6450 225.0077 0082870 183.3115 176.7477 15.27192284113414
Epoch: 2026-05-26T06:22Z
TLE epoch observation values (Epoch: 2026-05-26T06:22:55.285Z)
Latitude
-0.00008°
Longitude
-114.56452°
Altitude
543.023 km
Speed
7.56 km/s
True Right ascension
15h 00m 01s
True Declination
0° 00' 00"
Sunlit
Object was in full shadow at epoch
Visualization orbit readout
Latitude
Unknown
Longitude
Unknown
Altitude
Unknown
Speed
Unknown
Apparent Right ascension
Unknown
Apparent Declination
Unknown
Sunlit
N/A
Visualization observer readout
Local Sidereal Time
03:22:12
Azimuth
Unknown
Elevation
Unknown
Doppler factor
Unknown
Orbital elements
Apogee altitude
539.627 km
Perigee altitude
425.915 km
Semi-major axis
6,860.908 km
Eccentricity
0.00829
Inclination
64.645°
RAAN
225.0077°
Arg. of periapsis
183.3115°
True anomaly
176.80102°
Mean anomaly
176.7477°
Eccentric anomaly
176.77442°
Mean motion
3.81919 °/min
Orbital period
94.26 mins
BSTAR
0.00055462
Loading maneuver chart data...
Computing Atmospheric mass density...
Loading historical data...
Loading historical data...
Loading historical data...
Loading historical data...
Loading historical data...
Loading historical data...
Loading historical data...

Documentation

Showing up to 5 results
|